Weather History for Trabzon, Turkey

Change the Weather History Date:

Thursday, March 14, 2013

  Actual Average Record
Temperature  
Mean Temperature 56 °F -  
Max Temperature 77 °F 53 °F 80 °F (2006)
Min Temperature 49 °F 43 °F 37 °F (2011)
Degree Days  
Heating Degree Days 8    
Growing Degree Days 6 (Base 50)    
Moisture  
Dew Point 46 °F    
Average Humidity 69    
Maximum Humidity 94    
Minimum Humidity 24    
Precipitation  
Precipitation 0.00 in - - ()
Sea Level Pressure  
Sea Level Pressure 29.83 in    
Wind  
Wind Speed 3 mph ()    
Max Wind Speed 13 mph    
Max Gust Speed 14 mph    
Visibility 6.4 miles    
Events      
Averages and records for this station are not official NWS values.
T = Trace of Precipitation, MM = Missing Value Source: Averaged Metar Reports

Daily Weather History Graph

Daily Weather History Graph

Search for Another Location

Airport:

Trip Planner

Search our weather history database for the weather conditions in past years. The results will help you decide how hot, cold, wet, or windy it might be!

Date:

Astronomy

Mar. 14, 2013 Rise Set
Actual Time 5:34 AM EET 5:26 PM EET
Civil Twilight 5:06 AM EET 5:53 PM EET
Nautical Twilight 4:35 AM EET 6:25 PM EET
Astronomical Twilight 4:02 AM EET 6:58 PM EET
Moon 6:34 AM EET (3/14) 8:23 PM EET (3/14)
Length of Visible Light 12h 46m
Length of Day
11h 52m
Waxing Crescent, 7% of the Moon is Illuminated
Mar 14
Waxing Crescent
Mar 19
First Quarter
Mar 27
Full
Apr 3
Last Quarter
Apr 10
New

Hourly Weather History & Observations

Time (EET) Temp. Dew Point Humidity Pressure Visibility Wind Dir Wind Speed Gust Speed Precip Events Conditions
12:20 AM 51.8 °F 46.4 °F 82% 29.86 in 6.2 mi East 3.5 mph - N/A   Mostly Cloudy
12:50 AM 51.8 °F 46.4 °F 82% 29.86 in 6.2 mi Calm Calm - N/A   Mostly Cloudy
1:20 AM 51.8 °F 46.4 °F 82% 29.86 in 6.2 mi Calm Calm - N/A   Mostly Cloudy
1:50 AM 50.0 °F 46.4 °F 87% 29.86 in 6.2 mi Calm Calm - N/A   Mostly Cloudy
2:00 AM 51 °F 46 °F 78% 29.86 in 12 mi Calm Calm - -   Mostly Cloudy
2:20 AM 51.8 °F 44.6 °F 76% 29.83 in 6.2 mi Calm Calm - N/A   Mostly Cloudy
2:50 AM 50.0 °F 46.4 °F 87% 29.83 in 6.2 mi Variable 1.2 mph - N/A   Mostly Cloudy
3:20 AM 50.0 °F 48.2 °F 94% 29.83 in 6.2 mi Variable 1.2 mph - N/A   Mostly Cloudy
3:50 AM 50.0 °F 48.2 °F 94% 29.83 in 6.2 mi Calm Calm - N/A   Mostly Cloudy
4:20 AM 51.8 °F 46.4 °F 82% 29.86 in 6.2 mi Calm Calm - N/A   Mostly Cloudy
4:50 AM 53.6 °F 46.4 °F 77% 29.86 in 6.2 mi South 4.6 mph - N/A   Mostly Cloudy
5:20 AM 50.0 °F 46.4 °F 87% 29.86 in 6.2 mi ESE 3.5 mph - N/A   Mostly Cloudy
5:50 AM 51.8 °F 46.4 °F 82% 29.86 in 6.2 mi Calm Calm - N/A   Mostly Cloudy
6:20 AM 53.6 °F 44.6 °F 72% 29.83 in 6.2 mi ESE 3.5 mph - N/A   Mostly Cloudy
6:50 AM 53.6 °F 46.4 °F 77% 29.83 in 6.2 mi Variable 1.2 mph - N/A   Mostly Cloudy
7:20 AM 57.2 °F 46.4 °F 67% 29.83 in 6.2 mi Variable 2.3 mph - N/A   Mostly Cloudy
7:50 AM 53.6 °F 48.2 °F 82% 29.86 in 6.2 mi East 3.5 mph - N/A   Scattered Clouds
8:00 AM 54 °F 48 °F 72% 29.86 in 12 mi East 3.5 mph - -   Partly Cloudy
8:20 AM 53.6 °F 48.2 °F 82% 29.86 in 6.2 mi East 5.8 mph - N/A   Scattered Clouds
8:50 AM 53.6 °F 48.2 °F 82% 29.86 in 6.2 mi East 6.9 mph - N/A   Scattered Clouds
9:20 AM 57.2 °F 48.2 °F 72% 29.86 in 6.2 mi East 11.5 mph - N/A   Scattered Clouds
9:50 AM 60.8 °F 46.4 °F 59% 29.86 in 6.2 mi East 10.4 mph - N/A   Scattered Clouds
10:20 AM 60.8 °F 46.4 °F 59% 29.83 in 6.2 mi East 11.5 mph - N/A   Scattered Clouds
10:50 AM 59.0 °F 46.4 °F 63% 29.83 in 6.2 mi East 12.7 mph - N/A   Scattered Clouds
11:20 AM 55.4 °F 48.2 °F 77% 29.86 in 6.2 mi East 9.2 mph - N/A   Scattered Clouds
11:50 AM 57.2 °F 46.4 °F 67% 29.86 in 6.2 mi East 10.4 mph - N/A   Scattered Clouds
12:20 PM 57.2 °F 46.4 °F 67% 29.86 in 6.2 mi East 6.9 mph - N/A   Mostly Cloudy
12:50 PM 57.2 °F 46.4 °F 67% 29.83 in 6.2 mi East 6.9 mph - N/A   Mostly Cloudy
1:20 PM 57.2 °F 48.2 °F 72% 29.83 in 6.2 mi East 4.6 mph - N/A   Mostly Cloudy
1:50 PM 57.2 °F 46.4 °F 67% 29.83 in 6.2 mi East 5.8 mph - N/A   Mostly Cloudy
2:00 PM 57 °F 46 °F 57% 29.84 in 12 mi East 5.8 mph - -   Scattered Clouds
2:20 PM 59.0 °F 44.6 °F 59% 29.83 in 6.2 mi East 3.5 mph - N/A   Mostly Cloudy
2:50 PM 59.0 °F 44.6 °F 59% 29.83 in 6.2 mi East 6.9 mph - N/A   Mostly Cloudy
3:20 PM 57.2 °F 46.4 °F 67% 29.83 in 6.2 mi East 3.5 mph - N/A   Mostly Cloudy
3:50 PM 57.2 °F 46.4 °F 67% 29.83 in 6.2 mi East 4.6 mph - N/A   Mostly Cloudy
4:20 PM 55.4 °F 46.4 °F 72% 29.83 in 6.2 mi ESE 4.6 mph - N/A   Mostly Cloudy
4:50 PM 55.4 °F 46.4 °F 72% 29.83 in 6.2 mi ESE 3.5 mph - N/A   Mostly Cloudy
5:20 PM 57.2 °F 46.4 °F 67% 29.80 in 5.6 mi Variable 1.2 mph - N/A   Mostly Cloudy
5:50 PM 55.4 °F 46.4 °F 72% 29.80 in 5.6 mi Variable 2.3 mph - N/A   Mostly Cloudy
6:20 PM 57.2 °F 46.4 °F 67% 29.80 in 6.2 mi Variable 2.3 mph - N/A   Mostly Cloudy
6:50 PM 53.6 °F 46.4 °F 77% 29.80 in 6.2 mi Calm Calm - N/A   Scattered Clouds
7:20 PM 57.2 °F 46.4 °F 67% 29.80 in 6.2 mi SSE 3.5 mph - N/A   Scattered Clouds
7:50 PM 59.0 °F 42.8 °F 55% 29.80 in 5.6 mi Calm Calm - N/A   Scattered Clouds
8:00 PM 60 °F 43 °F 43% 29.80 in 6 mi Calm Calm - -   Smoke
8:20 PM 55.4 °F 46.4 °F 72% 29.77 in 5.0 mi Calm Calm - N/A   Scattered Clouds
8:50 PM 59.0 °F 44.6 °F 59% 29.77 in 5.6 mi Calm Calm - N/A   Scattered Clouds
9:20 PM 60.8 °F 42.8 °F 52% 29.77 in 5.6 mi Variable 2.3 mph 13.8 mph N/A   Scattered Clouds
9:50 PM 62.6 °F 41.0 °F 45% 29.77 in 5.6 mi Variable 1.2 mph - N/A   Scattered Clouds
10:20 PM 64.4 °F 42.8 °F 45% 29.77 in 6.2 mi Variable 3.5 mph - N/A   Scattered Clouds
10:50 PM 57.2 °F 44.6 °F 63% 29.77 in 6.2 mi ENE 3.5 mph - N/A   Scattered Clouds
11:20 PM 64.4 °F 41.0 °F 42% 29.74 in 6.2 mi ESE 5.8 mph - N/A   Scattered Clouds
11:50 PM 77.0 °F 37.4 °F 24% 29.74 in 6.2 mi South 10.4 mph - N/A   Scattered Clouds